This demonstration page uses our WeatherBlox Daily Observations layout. Learn more.

Left ArrowRight Arrow

38.88101, -77.10428

Hourly Observations for July 13, 2016

Temp ( °F °C ) Dew Point ( °F °C ) Humidity (%) Winds ( mph kmh ) Pressure ( in mb ) Visibility ( mi km ) Precip ( " mm )
12:47 am 00:47 Cloudy 79 26 68 20 70 70 S 9 15 30.09 1019 10 16.0934 0 0
12:52 am 00:52 Cloudy 78 25.6 68 20 71 71 SSE 9 15 30.07 1018 10 16.0934 0 0
1:52 am 01:52 Cloudy 77 25 69 20.6 77 77 SE 6 9 30.07 1018 10 16.0934 0 0
2:52 am 02:52 Cloudy 76 24.4 71 21.7 85 85 SSE 6 9 30.05 1018 10 16.0934 0 0
3:52 am 03:52 Cloudy 75 23.9 72 22.2 90 90 SSE 6 9 30.04 1017 10 16.0934 0 0
4:52 am 04:52 Cloudy 76 24.4 72 22.2 88 88 S 7 11 30.03 1017 10 16.0934 0 0
5:28 am 05:28 Cloudy 76 24.4 72 22.2 88 88 Calm 30.03 1017 10 16.0934 0 0
5:52 am 05:52 Cloudy 76 24.4 73 22.8 91 91 Calm 30.04 1017 10 16.0934 0 0
6:03 am 06:03 Cloudy 77 25 73 22.8 88 88 SSW 3 6 30.03 1017 10 16.0934 0 0
6:52 am 06:52 Cloudy 77 25 73 22.8 88 88 SE 6 9 30.04 1017 10 16.0934 0 0
7:52 am 07:52 Cloudy 77 25 73 22.8 88 88 S 5 7 30.04 1017 10 16.0934 0 0
8:52 am 08:52 Cloudy 78 25.6 74 23.3 87 87 S 6 9 30.05 1018 10 16.0934 0 0
9:06 am 09:06 Cloudy 78 25.6 74 23.3 87 87 S 3 6 30.06 1018 10 16.0934 0 0
9:52 am 09:52 Cloudy 80 26.7 75 23.9 85 85 S 6 9 30.05 1018 10 16.0934 0 0
10:52 am 10:52 Mostly Cloudy 84 28.9 75 23.9 74 74 SSE 6 9 30.05 1018 10 16.0934 0 0
12:52 pm 12:52 Partly Cloudy 87 30.6 75 23.9 67 67 S 9 15 30.02 1017 10 16.0934 0 0
1:52 pm 13:52 Mostly Cloudy 89 31.7 74 23.3 61 61 S 13 20 30.01 1016 10 16.0934 0 0
2:52 pm 14:52 Mostly Cloudy 87 30.6 72 22.2 61 61 SSE 8 13 30 1016 10 16.0934 0 0.0254
3:52 pm 15:52 Mostly Cloudy 88 31.1 74 23.3 63 63 S 9 15 29.98 1015 10 16.0934 0 0
4:52 pm 16:52 Mostly Cloudy 90 32.2 72 22.2 56 56 SE 5 7 29.97 1015 10 16.0934 0 0
5:52 pm 17:52 Mostly Cloudy 87 30.6 74 23.3 65 65 ESE 12 19 29.96 1014 10 16.0934 0 0
6:52 pm 18:52 Mostly Cloudy 85 29.4 75 23.9 72 72 ESE 12 19 29.95 1014 10 16.0934 0 0
7:52 pm 19:52 Partly Cloudy 84 28.9 76 24.4 77 77 SE 9 15 29.97 1015 10 16.0934 0 0
8:52 pm 20:52 Partly Cloudy 83 28.3 76 24.4 79 79 ESE 6 9 29.95 1014 10 16.0934 0 0
9:52 pm 21:52 Partly Cloudy 82 27.8 76 24.4 82 82 SE 5 7 29.96 1015 10 16.0934 0 0
10:52 pm 22:52 Partly Cloudy 81 27.2 76 24.4 85 85 ESE 3 6 29.96 1015 10 16.0934 0 0
11:52 pm 23:52 Partly Cloudy 80 26.7 76 24.4 87 87 ESE 5 7 29.98 1015 10 16.0934 0 0

Powered by AerisWeather